GW2646 Weather Reports


Display with metric or nautical units.
time (UTC)temp
F
wind
direction
speed
MPH
gust
MPH
rain 1hr
in
rain 24hr
in
rain mn
in
humidity
%
barometer
mb
20260504230547 79 221 4.0 7.0 0.00 0.00 0.00 41 1009.4
20260504230053 81 208 2.0 8.0 0.00 0.00 0.00 40 1009.4
20260504225549 80 155 2.0 10.0 0.00 0.00 0.00 42 1009.4
20260504225049 78 0 3.0 10.0 0.00 0.00 0.00 41 1009.4
20260504224604 79 277 2.0 10.0 0.00 0.00 0.00 40 1009.4
20260504224048 81 240 2.0 10.0 0.00 0.00 0.00 38 1009.4
20260504223549 81 165 2.0 10.0 0.00 0.00 0.00 40 1009.5
20260504223054 80 223 3.0 8.0 0.00 0.00 0.00 39 1009.5
20260504222549 80 173 2.0 8.0 0.00 0.00 0.00 39 1009.5
20260504222048 80 219 2.0 8.0 0.00 0.00 0.00 40 1009.5
20260504221604 79 0 3.0 8.0 0.00 0.00 0.00 39 1009.5
20260504221048 79 225 3.0 7.0 0.00 0.00 0.00 39 1009.6
20260504220548 79 311 2.0 8.0 0.00 0.00 0.00 37 1009.6
20260504220058 79 286 2.0 8.0 0.00 0.00 0.00 39 1009.7
20260504215546 79 317 1.0 11.0 0.00 0.00 0.00 38 1009.9
20260504215047 78 180 4.0 11.0 0.00 0.00 0.00 38 1010.0
20260504214602 78 300 2.0 8.0 0.00 0.00 0.00 38 1010.1
20260504214046 79 203 2.0 7.0 0.00 0.00 0.00 38 1010.1
20260504213545 79 281 1.0 8.0 0.00 0.00 0.00 37 1010.1
20260504213105 79 155 1.0 8.0 0.00 0.00 0.00 38 1010.1
20260504212545 78 217 4.0 10.0 0.00 0.00 0.00 41 1010.1
20260504212044 78 167 3.0 10.0 0.00 0.00 0.00 42 1010.2
20260504211604 77 117 2.0 10.0 0.00 0.00 0.00 43 1010.2
20260504211045 77 200 2.0 10.0 0.00 0.00 0.00 43 1010.2
20260504210543 77 269 3.0 8.0 0.00 0.00 0.00 43 1010.2
20260504205549 75 232 2.0 10.0 0.00 0.00 0.00 45 1010.2
20260504205051 77 225 2.0 8.0 0.00 0.00 0.00 43 1010.2
20260504204635 77 96 4.0 10.0 0.00 0.00 0.00 45 1010.3
20260504204048 77 162 4.0 10.0 0.00 0.00 0.00 43 1010.3
20260504203549 77 174 3.0 9.0 0.00 0.00 0.00 43 1010.4
20260504203053 77 157 3.0 8.0 0.00 0.00 0.00 42 1010.4
20260504202545 75 0 3.0 11.0 0.00 0.00 0.00 44 1010.4
20260504202046 76 271 1.0 11.0 0.00 0.00 0.00 44 1010.5
20260504201554 76 159 0.0 7.0 0.00 0.00 0.00 46 1010.4
20260504201046 76 157 3.0 8.0 0.00 0.00 0.00 45 1010.5
20260504200546 74 223 3.0 8.0 0.00 0.00 0.00 48 1010.4
20260504200055 75 218 3.0 9.0 0.00 0.00 0.00 49 1010.6
20260504195546 76 194 2.0 9.0 0.00 0.00 0.00 45 1010.6
20260504195046 75 134 3.0 9.0 0.00 0.00 0.00 46 1010.6
20260504194555 74 179 3.0 9.0 0.00 0.00 0.00 48 1010.5
20260504194046 75 157 1.0 11.0 0.00 0.00 0.00 48 1010.5
20260504193545 74 221 3.0 11.0 0.00 0.00 0.00 47 1010.4
20260504193050 73 188 4.0 11.0 0.00 0.00 0.00 48 1010.5
20260504192545 73 186 3.0 11.0 0.00 0.00 0.00 48 1010.4
20260504192048 73 242 3.0 11.0 0.00 0.00 0.00 48 1010.4
20260504191555 74 146 4.0 10.0 0.00 0.00 0.00 47 1010.5
20260504191046 74 156 4.0 11.0 0.00 0.00 0.00 48 1010.4
20260504190546 74 155 4.0 11.0 0.00 0.00 0.00 48 1010.5
20260504190100 73 219 4.0 10.0 0.00 0.00 0.00 49 1010.5
20260504185545 73 176 4.0 10.0 0.00 0.00 0.00 50 1010.5
20260504185048 73 225 3.0 9.0 0.00 0.00 0.00 52 1010.6
20260504184604 72 200 3.0 9.0 0.00 0.00 0.00 48 1010.5
20260504184048 73 225 3.0 10.0 0.00 0.00 0.00 49 1010.5
20260504183548 72 177 4.0 10.0 0.00 0.00 0.00 52 1010.4
20260504183058 73 192 4.0 9.0 0.00 0.00 0.00 51 1010.5
20260504182550 73 148 3.0 9.0 0.00 0.00 0.00 55 1010.5
20260504182048 72 165 4.0 8.0 0.00 0.00 0.00 55 1010.5
20260504181552 72 213 2.0 8.0 0.00 0.00 0.00 57 1010.4
20260504181048 72 165 2.0 8.0 0.00 0.00 0.00 54 1010.4
20260504180549 72 168 3.0 8.0 0.00 0.00 0.00 57 1010.4
20260504180051 71 202 3.0 8.0 0.00 0.00 0.00 57 1010.4
20260504175551 70 0 3.0 8.0 0.00 0.00 0.00 60 1010.5
20260504175048 71 207 1.0 9.0 0.00 0.00 0.00 59 1010.4
20260504174550 69 238 4.0 9.0 0.00 0.00 0.00 61 1010.5
20260504174048 69 229 3.0 8.0 0.00 0.00 0.00 61 1010.4
20260504173549 69 229 3.0 7.0 0.00 0.00 0.00 61 1010.4
20260504173053 69 261 1.0 7.0 0.00 0.00 0.00 62 1010.3
20260504172547 68 0 2.0 7.0 0.00 0.00 0.00 63 1010.3
20260504172047 68 188 2.0 7.0 0.00 0.00 0.00 63 1010.3
20260504171552 68 290 0.0 3.0 0.00 0.00 0.00 63 1010.3
20260504171048 68 300 0.0 3.0 0.00 0.00 0.00 63 1010.4
20260504170547 67 300 0.0 5.0 0.00 0.00 0.00 64 1010.4
20260504151048 58 0 0.0 2.0 0.00 0.00 0.00 80 1010.3
20260504150550 57 323 0.0 2.0 0.00 0.00 0.00 82 1010.4
20260504141047 52 0 0.0 0.0 0.00 0.00 0.00 92 1009.7
20260504140547 51 0 0.0 1.0 0.00 0.00 0.00 93 1009.8
20260504130547 50 0 0.0 0.0 0.00 0.00 0.00 92 1009.4
20260504110546 51 0 0.0 0.0 0.00 0.00 0.00 89 1009.4
20260504100545 52 0 0.0 0.0 0.00 0.00 0.00 87 1009.5
20260504081555 53 0 0.0 0.0 0.00 0.00 0.00 82 1009.3
20260504081047 53 0 0.0 0.0 0.00 0.00 0.00 82 1009.3
20260504080547 53 0 0.0 1.0 0.00 0.00 0.00 82 1009.3
20260504050548 61 0 0.0 0.0 0.00 0.00 0.00 64 1009.4
20260504045547 63 0 0.0 0.0 0.00 0.00 0.00 58 1009.5
20260504045048 63 0 0.0 0.0 0.00 0.00 0.00 58 1009.4
20260504044557 63 0 0.0 0.0 0.00 0.00 0.00 57 1009.5
20260504044048 64 0 0.0 1.0 0.00 0.00 0.00 56 1009.5
20260504043550 64 0 0.0 1.0 0.00 0.00 0.00 57 1009.5
20260504043057 65 0 0.0 0.0 0.00 0.00 0.00 56 1009.4
20260504042552 65 0 0.0 0.0 0.00 0.00 0.00 54 1009.4
20260504042048 66 0 0.0 1.0 0.00 0.00 0.00 52 1009.5
20260504041551 67 0 0.0 1.0 0.00 0.00 0.00 51 1009.4
20260504041048 67 0 0.0 1.0 0.00 0.00 0.00 50 1009.4
20260504040550 67 0 0.0 1.0 0.00 0.00 0.00 50 1009.4
20260504040055 68 0 0.0 1.0 0.00 0.00 0.00 49 1009.4
20260504035547 68 0 0.0 2.0 0.00 0.00 0.00 48 1009.3
20260504035048 68 0 0.0 2.0 0.00 0.00 0.00 47 1009.3
20260504034611 69 0 0.0 3.0 0.00 0.00 0.00 47 1009.2
20260504034047 69 0 0.0 3.0 0.00 0.00 0.00 46 1009.2
20260504033548 69 323 0.0 3.0 0.00 0.00 0.00 46 1009.2
20260504033051 70 0 0.0 1.0 0.00 0.00 0.00 45 1009.2
20260504032547 70 0 0.0 3.0 0.00 0.00 0.00 45 1009.1
20260504032050 71 0 0.0 3.0 0.00 0.00 0.00 45 1009.1
20260504031552 72 0 0.0 1.0 0.00 0.00 0.00 43 1009.0
20260504031048 72 0 0.0 1.0 0.00 0.00 0.00 42 1009.0
20260504030545 72 0 0.0 3.0 0.00 0.00 0.00 41 1009.0
20260504030051 72 0 0.0 4.0 0.00 0.00 0.00 39 1009.2
20260504025545 73 0 1.0 5.0 0.00 0.00 0.00 38 1009.3
20260504025045 73 311 0.0 6.0 0.00 0.00 0.00 38 1009.3
20260504024558 73 304 2.0 7.0 0.00 0.00 0.00 37 1009.3
20260504024046 74 295 2.0 7.0 0.00 0.00 0.00 37 1009.3
20260504023544 74 330 2.0 7.0 0.00 0.00 0.00 38 1009.3
20260504023057 75 304 1.0 7.0 0.00 0.00 0.00 38 1009.3
20260504022549 75 0 1.0 7.0 0.00 0.00 0.00 39 1009.3
20260504022045 75 292 2.0 7.0 0.00 0.00 0.00 39 1009.3
20260504021554 76 337 1.0 7.0 0.00 0.00 0.00 39 1009.3
20260504021047 76 325 1.0 7.0 0.00 0.00 0.00 40 1009.3
20260504020545 76 292 1.0 7.0 0.00 0.00 0.00 39 1009.3
20260504020048 76 266 1.0 9.0 0.00 0.00 0.00 38 1009.3
20260504015545 76 325 2.0 9.0 0.00 0.00 0.00 37 1009.3
20260504015045 77 327 2.0 9.0 0.00 0.00 0.00 37 1009.4
20260504014606 77 0 1.0 8.0 0.00 0.00 0.00 39 1009.4
20260504014046 77 225 0.0 8.0 0.00 0.00 0.00 38 1009.4
20260504013548 78 247 1.0 7.0 0.00 0.00 0.00 37 1009.4
20260504013054 78 292 2.0 8.0 0.00 0.00 0.00 39 1009.4
20260504012547 78 310 2.0 8.0 0.00 0.00 0.00 39 1009.4
20260504012047 79 255 2.0 7.0 0.00 0.00 0.00 39 1009.4
20260504011558 79 243 1.0 7.0 0.00 0.00 0.00 39 1009.5
20260504011043 78 321 0.0 8.0 0.00 0.00 0.00 40 1009.5
20260504010546 78 326 1.0 8.0 0.00 0.00 0.00 39 1009.5
20260504005545 79 337 1.0 6.0 0.00 0.00 0.00 40 1009.6
20260504005044 78 0 2.0 10.0 0.00 0.00 0.00 41 1009.8
20260504004555 78 325 3.0 10.0 0.00 0.00 0.00 40 1009.9
20260504004047 78 291 4.0 10.0 0.00 0.00 0.00 39 1010.0
20260504003545 78 302 2.0 8.0 0.00 0.00 0.00 42 1010.0
20260504003100 78 325 3.0 9.0 0.00 0.00 0.00 42 1010.0
20260504002543 79 327 3.0 9.0 0.00 0.00 0.00 40 1010.0
20260504002044 78 316 1.0 9.0 0.00 0.00 0.00 43 1010.1
20260504001604 78 209 3.0 9.0 0.00 0.00 0.00 44 1010.2
20260504001047 79 327 3.0 7.0 0.00 0.00 0.00 42 1010.2
20260504000546 80 360 1.0 8.0 0.00 0.00 0.00 43 1010.3
20260504000052 79 0 1.0 9.0 0.00 0.00 0.00 43 1010.2
20260503235547 78 322 2.0 9.0 0.00 0.00 0.00 42 1010.3
20260503235048 79 314 2.0 8.0 0.00 0.00 0.00 43 1010.3
20260503234556 79 315 1.0 6.0 0.00 0.00 0.00 43 1010.3
20260503234049 79 310 1.0 9.0 0.00 0.00 0.00 44 1010.3
20260503233547 79 213 1.0 9.0 0.00 0.00 0.00 45 1010.4
20260503233050 79 0 2.0 9.0 0.00 0.00 0.00 44 1010.5
20260503232550 79 273 2.0 9.0 0.00 0.00 0.00 45 1010.5
20260503232051 79 274 2.0 9.0 0.00 0.00 0.00 43 1010.5
20260503231555 79 352 2.0 9.0 0.00 0.00 0.00 44 1010.6
20260503231048 79 222 3.0 9.0 0.00 0.00 0.00 44 1010.7